Погода в Верхоянске

Погода в Верхоянске : погода сейчас, прогноз погоды и архив. Всё, что Вы хотите узнать о погоде в Верхоянске!

Хотите узнать прогноз погоды в Верхоянске? Тогда Вам сюда: Погода в Верхоянске

Поиск расширенной информации на нашем сайте:

Другие новости

Новости СМИ2

Главная страница сайта

Новости сайта

03.07.2017

Напоминаем, что на нашем специализированном сайте Метеоцентр.Азия вы можете получить высокодетализированные автоматические прогнозы погоды по пунктам России, СНГ и мира в авиационном формате (включающие направление и скорость ветра, видимость, явления погоды, количество и форму облачности, нижнюю и верхнюю границу облачности).


Погода в Верхоянске - сегодня

Время (UTC), дата Ветер
(°,м/с) 
Видим.   Явления Облачность Т
(°С)
Тd
(°С)
f(%) Тe
(°С)
Pmin
(гПа)
dP
(гПа)
Po
(мм)
O2
(г/м3)
Тmin Tmax R s Состояние
почвы
15 14.06.18 060 (СВ) 20000 м    1/1 1000 м 
[Sc]
+17.5 +7.9 53 +18  1011.2  0.3  746  281           
18 14.06.18 070 (В) 20000 м    9/1 1000 м верхняя 
[Sc|Cs]
+13.6 +10.2 80 +17  1012  0.6  747  285           
00 15.06.18 тихо ()   20000 м    9/1 1000 м кучево-дожд., средняя 
[Cb cap|Ac trans]
+19.5 +12.2 63 +24  1011.5  -0.4  747  278           
03 15.06.18 080 (В) 20000 м    9/3 1000 м кучево-дожд., средняя 
[Cb cap|Ac trans]
+21.9 +12 53 +26  1009.5  -1.9  745  276           
12 15.06.18 010 (С) 20000 м    3/1 1000 м верхняя 
[Sc|Ci fib]
+16.2 +4.8 47 +17  1010  0.2  745  283           
15 15.06.18 350 (С) 20000 м    3/1 1000 м средняя, верхняя 
[Sc|Ac trans|Ci fib]
+10.3 +4.8 69 +11  1010.4  745  289           
18 15.06.18 020 (С) 20000 м    3/1 1000 м верхняя 
[Sc|Ci fib]
+9.4 +4.5 71 +10  1009.6  -0.8  745  289           
21 15.06.18 040 (СВ) 20000 м    8/3 1000 м средняя, верхняя 
[Sc|Ac trans|Ci fib]
+11.3 +3.6 59 +11  1008.2  -1.2  744  287  +7.2        сухая 
00 16.06.18 030 (СВ) 20000 м  осадки на расстоянии  9/3 1000 м кучево-дожд., средняя 
[Cb cap|Ac trans]
+10.1 +4.3 67 +10  1007.2  -1.1  743  288  +10.1         
06 16.06.18 020 (С) 20000 м  {ливн. осадки}  10/10 300 м кучево-дожд. 
[Cb cap]
+4.4 +1.9 84 +4  1010.1  745  295           
12 16.06.18 340 (С) 20000 м    9/9 600 м кучево-дожд. 
[Cb cap]
+6.2 +2 74 +5  1009.4  744  293           
15 16.06.18 тихо ()   20000 м    10/10 600 м кучево-дожд. 
[Cb cap]
+5.2 +2.2 81 +5  1008.2  -1.1  744  294           
18 16.06.18 тихо ()   20000 м    10/10 600 м 
[Sc]
+5.3 +3.4 88 +5  1007.1  -1.1  743  293           
00 17.06.18 190 (Ю) 20000 м  слаб. ливневой дождь  10/10 300 м кучево-дожд. 
[Cb cap]
+5.7 +4.8 94 +5  1007.1  0.4  743  292  +4.8         
03 17.06.18 200 (Ю) 10 км  слаб. морось{ливн. осадки}  10/10 300 м кучево-дожд. 
[Cb cap]
+7.2 +6.3 94 +6  1007  743  291           
06 17.06.18 210 (ЮЗ) 10 км  слаб. морось{ливн. осадки}  10/10 200 м 
[St]
+9 +8.2 95 +9  1006.7  -0.2  743  288           
12 17.06.18 320 (СЗ) 20000 м  {морось}  9/9 300 м 
[Sc]
+10.7 +8.3 85 +11  1007.3  0.3  743  287           
15 17.06.18 230 (ЮЗ) 20000 м    9/9 300 м 
[Sc]
+9 +8 93 +10  1007.4  0.1  743  288           
18 17.06.18 230 (ЮЗ) 20000 м    9/8 1000 м средняя 
[Sc|Ac trans]
+7 +6.4 96 +8  1007.4  -0.1  743  291           
03 18.06.18 тихо ()   20000 м    9/1 1000 м кучево-дожд., средняя 
[Cb cap|Ac trans]
+16.3 +9.6 64 +17  1006.5  -0.8  743  281           
06 18.06.18 320 (СЗ) 20000 м  слаб. ливневой дождь  10/5 1000 м кучево-дожд., средняя 
[Cb cap|Ac cuf]
+16.5 +10.4 67 +20  1006.3  -0.2  743  280           
12 18.06.18 300 (СЗ) 20000 м  слаб. ливневой дождь  9/6 1000 м кучево-дожд., средняя 
[Cb cap|Ac trans]
+16.5 +11.4 72 +21  1007  0.8  743  280           
15 18.06.18 230 (ЮЗ) 20000 м    4/1 1000 м средняя, верхняя 
[Sc|Ac trans|Ci fib]
+12.9 +11.8 93 +17  1008.5  1.2  744  284           
18 18.06.18 230 (ЮЗ) 20000 м    4/3 1000 м верхняя 
[Sc|Ci fib]
+10.1 +9.1 93 +10  1009.6  0.9  745  288           
21 18.06.18 200 (Ю) 20000 м    1/1 300 м 
[St]
+12.6 +9.5 81 +14  1010.4  746  285  +9.8    0.1    влажная 
Время (UTC), дата Ветер
(°,м/с) 
Видим.   Явления Облачность Т
(°С)
Тd
(°С)
f(%) Тe
(°С)
Pmin
(гПа)
dP
(гПа)
Po
(мм)
O2
(г/м3)
Тmin Tmax R s Состояние
почвы

Для получения пояснительной информации подведите курсор к названию столбца.

ПОГОДА в Верхоянске - архив

Всё, что Вы хотите узнать о погоде в Верхоянске - удобно и подробно!

Выберите нужную дату (начиная с 1 января 2015* года) и нажмите кнопку "Найти".
Будут отображены архивные сводки погоды по пункту Верхоянск, начиная с указанной даты.


Отображать данные в формате CSV (для использования в таблицах Excel)


Внимание! Наш архив погоды предназначен исключительно для личного некоммерческого использования в познавательных целях. Если Вам необходимы официальные справки о состоянии погоды (для производственных, юридических, коммерческих и т.п. целей), обращайтесь в органы Росгидромета.

*Примечание: данная дата относится к архиву по метеостанциям СССР (Россия, СНГ, Балтия).
Архив по метеостанциям Зарубежной Европы и Азии (кроме Китая) хранится 10 дней, по другим регионам земного шара (Китай, Африка, Америка, Австралия, Океания) - 1 день.

Верхоянск - район местоположения метеостанции


Название, широта, долгота, высота метеостанции:
Верхоянск 67.6°ш. 133.4°д. 137 м над ур. моря [Российская Федерация]

Дополнительная информация

В oтличие oт бoльшинства пoгoдных сайтoв мы публикуем пoдрoбную метеoинфoрмацию в детальнoм прoфессиoнальнoм фoрмате.

Характеристики температуры и влажнoсти вoздуха измеряются на высoте 2 м в тени вдали oт зданий и деревьев.
Скoрoсть ветра измеряется на высoте 10 м (на урoвне рoста челoвека скoрoсть ветра ниже в 1.5-2 раза). Если метеoстанция нахoдится в гoрoде или в лесу, тo скoрoсть ветра занижена на 2-4 м/с пo сравнению с oткрытым местoм. Скoрoсть ветра над акватoриями крупных рек и oзёр, а также на вершинах хoлмoв на 2-5 м/с выше, чем в oбычных услoвиях.
Атмoсфернoе давление в разных тoчках местнoсти мoжет значительнo oтличаться oт давления на метеoстанции, в зависимoсти oт услoвий рельефа (при пoдъёме на 10 м давление пoнижается примернo на 1 мм рт.ст.).